User: anonymous   Login
Location: Theydon Bois
(51.6750°N, 0.1050°E)
Time: 01:18:53
(UTC+00:00)
Language:

Cosmos 2123 Rocket - Orbit

View from above orbital plane
View from above orbital plane
View from above satellite
View from above satellite

Ground track
Ground track

The orbit data is extracted from the following two-line orbital elements,

1 21090U 91007B   18052.49685978  .00000110  00000-0  97025-4 0  9990
2 21090  82.9193  52.9390 0021927  58.9899 301.3408 13.76347847358288
Epoch (UTC): 21 February 2018 11:55:28
Eccentricity: 0.0021927
inclination: 82.9193°
perigee height: 961 km
apogee height: 993 km
right ascension of ascending node: 52.9390°
argument of perigee: 58.9899°
revolutions per day: 13.76347847
mean anomaly at epoch: 301.3408°
orbit number at epoch: 35828

The dashed part of the orbit path shows where the satellite is in the earth's shadow,  

DLR